This is the latest recevied weather packets stored in our database for station/object SR6WVX. If no packets are shown the sender has not sent any weather packets the latest 10 day(s).
| Time | Temp. | Humidity | Pressure | Rain* | Wind** | Luminosity | Snow |
|---|---|---|---|---|---|---|---|
| 1778119760 | 11.67° C | 94% | 1002 hPa | 0 mm | - | - | - |
| 1778119460 | 11.67° C | 94% | 1002.1 hPa | 0 mm | - | - | - |
| 1778119159 | 11.67° C | 94% | 1001.8 hPa | 0 mm | - | - | - |
| 1778118859 | 11.67° C | 94% | 1001.8 hPa | 0.51 mm | - | - | - |
| 1778118559 | 11.67° C | 94% | 1001.7 hPa | 0.51 mm | - | - | - |
| 1778118258 | 12.22° C | 94% | 1001.6 hPa | 1.02 mm | - | - | - |
| 1778117958 | 12.22° C | 94% | 1001.6 hPa | 1.52 mm | - | - | - |
| 1778117658 | 12.22° C | 93% | 1001.5 hPa | 1.52 mm | - | - | - |
| 1778117358 | 12.22° C | 94% | 1001.5 hPa | 2.54 mm | - | - | - |
| 1778117057 | 12.22° C | 94% | 1001.4 hPa | 2.54 mm | - | - | - |
| 1778116757 | 12.22° C | 93% | 1001.3 hPa | 2.54 mm | - | - | - |
| 1778116457 | 12.22° C | 93% | 1001.3 hPa | 3.05 mm | - | - | - |
| 1778116157 | 12.22° C | 93% | 1001.4 hPa | 3.05 mm | - | - | - |
| 1778115856 | 12.78° C | 93% | 1001.3 hPa | 3.05 mm | - | - | - |
| 1778115556 | 12.78° C | 93% | 1001.4 hPa | 3.05 mm | - | - | - |
| 1778115256 | 12.78° C | 93% | 1001.4 hPa | 2.54 mm | - | - | - |
| 1778114955 | 12.78° C | 93% | 1001.5 hPa | 2.03 mm | - | - | - |
| 1778114655 | 12.78° C | 93% | 1001.4 hPa | 2.54 mm | - | - | - |
| 1778114355 | 12.78° C | 93% | 1001.1 hPa | 2.03 mm | - | - | - |
| 1778114055 | 12.78° C | 93% | 1001.5 hPa | 2.03 mm | - | - | - |
| 1778113754 | 12.78° C | 93% | 1002.2 hPa | 1.52 mm | - | - | - |
| 1778113454 | 12.78° C | 93% | 1002.1 hPa | 2.03 mm | - | - | - |
| 1778113154 | 12.78° C | 93% | 1002.2 hPa | 1.52 mm | - | - | - |
| 1778112854 | 12.78° C | 93% | 1002 hPa | 1.52 mm | - | - | - |
| 1778112553 | 12.78° C | 93% | 1001.7 hPa | 2.54 mm | - | - | - |
* Rain latest hour (hover to see other rain measurements)
** Current wind speed in m/s (hover to see current wind gust speed)